Flock 4be-14

operational
NORAD ID: 60517 Int'l Des: 2024-149 Owner: PLAN Country: US Constellation: planet
LEOCIRCULARRETROGRADESSO

关于 Flock 4be-14

正在加载描述...

实时位置

正在加载3D地球...

即将过境

高度历史

Altitude vs Time

uPlot chart will show altitude changes over time

两行轨道根数

1 60517U 24149BB 26062.20592588 .00020070 00000-0 54889-3 0 9990
2 60517 97.3760 145.3063 0003236 319.5079 40.5924 15.37395784 86025
Epoch: Mar 3, 2026 • Age: 24 hours

当前状态

高度 463.1 km
速度 7.64 km/s
星下点 54.37°N, 24.89°W
发射日期 Aug 16, 2024
运行时间 1.5 years
类型 earth observation

技术详情

分类 Payload
质量 5.70 kg
干质量 5.70 kg
总质量 5.70 kg
长度 0.30 m
直径 0.10 m
跨度 0.30 m
形状 Box+2 pan
制造商 PLAN
平台类型 Cubesat 3U
阶段状态 In Orbit
所有者/国家 PLAN/US

大型星座

Loading constellations...